Regional Weather Roundup
Issued by NWS

Home | Current Version | Previous Version | Text Only | Print | Product List | Glossary Off
Versions: 1 2 3 4 5 6 7 8 9 10 11 12 13 14 15 16 17 18 19 20 21 22 23 24 25 26 27 28 29 30 31 32 33 34 35 36 37 38 39 40 41 42 43 44 45 46 47 48 49 50

000
ASUS43 KLOT 011108
RWRIL

ILLINOIS REGIONAL WEATHER ROUNDUP
NATIONAL WEATHER SERVICE CHICAGO/ROMEOVILLE IL
600 AM CDT SUN MAY 01 2016

NOTE: "FAIR" INDICATES FEW OR NO CLOUDS BELOW 12,000 FEET WITH NO
SIGNIFICANT WEATHER AND/OR OBSTRUCTIONS TO VISIBILITY.

* THESE STATIONS ARE NOT UNDER NWS QUALITY CONTROL. THEY ALSO MAY NOT
  REPORT WEATHER SUCH AS PRECIPITATION OR FOG.

ILZ001-002-007-009-015-016-024-011200-
NORTHWEST ILLINOIS

CITY           SKY/WX    TMP DP  RH WIND       PRES   REMARKS
MOLINE         CLOUDY    48  45  89 NE8       29.93S FOG
STERLING*      CLOUDY    46  45  93 NE7       29.95R
SAVANNA*       CLOUDY    46  44  93 NE8       29.96R
$$

ILZ003-004-008-010-011-017-018-011200-
NORTH CENTRAL ILLINOIS

CITY           SKY/WX    TMP DP  RH WIND       PRES   REMARKS
ROCKFORD       CLOUDY    46  44  93 NE14      29.98R
FREEPORT*      CLOUDY    44  43  97 NE13      29.98R FOG
ROCHELLE*      CLOUDY    45  45  98 NE13G20   29.94R FOG
DE KALB*       CLOUDY    45  44  97 NE15      29.95R FOG
$$

ILZ005-006-012>014-019>023-011200-
NORTHEAST ILLINOIS

CITY           SKY/WX    TMP DP  RH WIND       PRES   REMARKS
CHICAGO-OHARE  FOG       43  43 100 NE13      29.93R VSB 3/4
CHICAGO-MIDWAY CLOUDY    46  43  89 N13       29.93R FOG
AURORA         CLOUDY    46  45  96 NE12      29.94R FOG
LANSING*       CLOUDY    46  46 100 NE6       29.92R FOG
JOLIET*        FOG       48  48  98 NE6       29.93R VSB 1
WAUKEGAN       FOG       42  42 100 NE13G21   29.96R VSB 1
DUPAGE AIRPORT CLOUDY    44  42  93 NE12      29.92S FOG
KANKAKEE*      CLOUDY    48  47  97 NE7       29.91R
WHEELING       CLOUDY    43  42  97 N12G18    29.96R FOG
MORRIS*        CLOUDY    47  46  97 CALM      29.93R FOG
ROMEOVILLE*    CLOUDY    46  46  99 NE9       29.93R FOG
NORTHERLY ISL    N/A     43  42  97 MISG        N/A
NORTHERLY ISL    N/A     43  42  97 MISG        N/A
$$

LMZ740>746-011200-
SOUTHERN LAKE MICHIGAN

STATION/POSITION SKY/WX   TEMP    WIND        PRES    VSBY  WAVE
                          AIR SEA DIR/SP/G                  HT/PER
                          (F)     (DEG/KT/KT) (MB)    (MI)  (FT/S)
SOUTHERN BUOY              41 40   40/ 14/ 16 1014.3R         2/ 5
HARRISON CRIB              44      30/ 19/ 22   N/A
BURNHAM HARBOR             43      20/ 11/ 15   N/A
CALUMET HARBOR             44      10/ 11/ 15 1012.4R
BURNS HARBOR               46      30/ 10/ 14 1013.2R
MICHIGAN CITY              47      10/  9/  9   N/A
ST. JOSEPH                 48 49                N/A           2/ 4
$$

ILZ025>027-034>036-040-047-049-050-058-095>099-011200-
WEST-CENTRAL ILLINOIS

CITY           SKY/WX    TMP DP  RH WIND       PRES   REMARKS
QUINCY         CLOUDY    50  49  96 NE8       29.90R FOG
GALESBURG*     FOG       46  46  99 NE10      29.93R VSB 1
MACOMB*        CLOUDY    47  47 100 N9        29.93S FOG
JACKSONVILLE*  FOG       53  52  97 N9        29.88S VSB 1
PITTSFIELD*    FOG       55  55 100 N6        29.89S VSB 1/4
$$

ILZ028>032-037-038-041>044-048-051>054-059>061-011200-
CENTRAL ILLINOIS

CITY           SKY/WX    TMP DP  RH WIND       PRES   REMARKS
PONTIAC        CLOUDY    49  49 100 NE7       29.92R FOG
BLOOMINGTON    FOG       49  49 100 NE8       29.92R VSB 1/2
DECATUR        FOG       55  54  96 NW6       29.88R VSB 1/2
PEORIA         CLOUDY    48  47  96 NE9       29.92R FOG
LACON*         CLOUDY    46  46  97 CALM      29.92R FOG
LINCOLN*       FOG       51  51 100 N6        29.89S VSB 1
SPRINGFIELD    FOG       53  52  96 N7        29.88S VSB 1
TAYLORVILLE    FOG       54  54 100 N6        29.87S VSB 1/4
$$

ILZ033-039-045-046-055>057-062-063-011200-
EAST-CENTRAL ILLINOIS

CITY           SKY/WX    TMP DP  RH WIND       PRES   REMARKS
CHAMPAIGN      FOG       52  52 100 N8        29.88R VSB 1/4
RANTOUL*       CLOUDY    52  52  99 NE5       29.89R FOG
MATTOON        CLOUDY    54  51  90 CALM      29.86S
PARIS*         CLOUDY    57  55  91 NW3       29.87S
$$

ILZ079-100>102-011200-
SOUTHWEST ILLINOIS

CITY           SKY/WX    TMP DP  RH WIND       PRES   REMARKS
ALTON            N/A     53  53  99 CALM      29.88R FOG
BELLEVILLE     CLEAR     56  56 100 SW1       29.86S
CAHOKIA*       CLEAR     55  53  93 CALM      29.87R FOG
SPARTA*        CLEAR     55  55  98 CALM      29.88S FOG
$$

ILZ064>066-069>071-074>076-080>082-084>086-088>090-092>094-011200-
SOUTH-CENTRAL ILLINOIS

CITY           SKY/WX    TMP DP  RH WIND       PRES   REMARKS
CARBONDALE     CLOUDY    58  55  90 E3        29.84F
CAIRO*         PTCLDY    62  62  99 E5        29.87S
EFFINGHAM*     CLOUDY    54  54 100 CALM      29.89R FOG
MARION         CLOUDY    59  57  94 CALM      29.86F
MT. VERNON     CLOUDY    57  54  88 NW3       29.87R
CENTRALIA*     CLEAR     58  58  97 CALM      29.87R
SALEM*         CLEAR     60  56  88 S5        29.87R
METROPOLIS*    CLOUDY    64  60  87 CALM      29.90S
$$

ILZ067-068-072-073-078-083-087-091-011200-
SOUTHEAST ILLINOIS

CITY           SKY/WX    TMP DP  RH WIND       PRES   REMARKS
LAWRENCEVILLE  CLOUDY    58  57  97 SE5         N/A
FLORA*         CLOUDY    61  57  87 SW9       29.87R
FAIRFIELD*     CLOUDY    58  57  96 S3        29.85S
HARRISBURG*    PTCLDY    58  57  97 SE6       29.88F
ROBINSON*      CLOUDY    56  55  98 CALM      29.87R
CARMI*         CLOUDY    58  56  96 S8        29.88S
$$

ABBREVIATIONS USED IN REMARKS
   TC - TEMPERATURE IN CELSIUS
  WCI - WIND CHILL INDEX
   HX - HEAT INDEX
  VSB - VISIBILITY
$$





USA.gov is the U.S. government's official web portal to all federal, state and local government web resources and services.